This is the latest recevied weather packets stored in our database for station/object JF2ZGN-13. If no packets are shown the sender has not sent any weather packets the latest 10 day(s).
| Time | Temp. | Humidity | Pressure | Rain* | Wind** | Luminosity | Snow |
|---|---|---|---|---|---|---|---|
| 1777692792 | 19.44° C | 39% | 901.6 hPa | 0 mm | - | - | - |
| 1777692192 | 19.44° C | 38% | 901.5 hPa | 0 mm | - | - | - |
| 1777691591 | 19.44° C | 36% | 901.5 hPa | 0 mm | - | - | - |
| 1777690992 | 18.89° C | 25% | 901.4 hPa | 0 mm | - | - | - |
| 1777690390 | 18.89° C | 32% | 901.4 hPa | 0 mm | - | - | - |
| 1777689790 | 18.33° C | 36% | 901.4 hPa | 0 mm | - | - | - |
| 1777689189 | 18.33° C | 35% | 901.3 hPa | 0 mm | - | - | - |
| 1777687989 | 18.33° C | 30% | 901 hPa | 0 mm | - | - | - |
| 1777672377 | 11.11° C | 48% | 896.1 hPa | 0 mm | - | - | - |
| 1777671176 | 10.56° C | 50% | 895.5 hPa | 0 mm | - | - | - |
| 1777670575 | 10.56° C | 48% | 895.5 hPa | 0 mm | - | - | - |
| 1777669975 | 9.44° C | 55% | 895 hPa | 0 mm | - | - | - |
| 1777669375 | 9.44° C | 61% | 894.7 hPa | 0 mm | - | - | - |
| 1777667573 | 9.44° C | 59% | 894 hPa | 0 mm | - | - | - |
| 1777666372 | 9.44° C | 61% | 893.4 hPa | 0 mm | - | - | - |
| 1777664570 | 7.22° C | 80% | 892.5 hPa | 0 mm | - | - | - |
| 1777663369 | 6.67° C | 84% | 892 hPa | 0 mm | - | - | - |
| 1777660368 | 6.67° C | 81% | 890.1 hPa | 0 mm | - | - | - |
| 1777656764 | 6.67° C | 81% | 888.4 hPa | 0 mm | - | - | - |
| 1777656164 | 6.11° C | 81% | 888 hPa | 0 mm | - | - | - |
| 1777655564 | 6.11° C | 82% | 887.5 hPa | 0 mm | - | - | - |
| 1777654964 | 6.11° C | 81% | 887.5 hPa | 0 mm | - | - | - |
| 1777653161 | 6.67° C | 79% | 886.8 hPa | 0 mm | - | - | - |
| 1777652561 | 6.11° C | 80% | 886.9 hPa | 0 mm | - | - | - |
| 1777651961 | 6.11° C | 79% | 887.2 hPa | 0 mm | - | - | - |
* Rain since midnight (hover to see other rain measurements)
** Current wind speed in m/s (hover to see current wind gust speed)